www.pogodaiklimat.ru

Погода и климат >> Архив погоды >> Китай >> Beijing


АРХИВ ПОГОДЫ в Beijing

Время (UTC), дата Ветер
(напр.,м/с)
 
Видим.   Явления Облачность Т
(С)
Тd
(С)
f
(%)
Тe
(С)
Тes
(С)
Комфортность P
(гПа)
Po
(гПа)
Тmin
(С)
Tmax
(С)
R
(мм)
R24
(мм)
S
(см)
15 17.11 С 2 30 км ?/? -1.6 -24.2 16 -4 -4 прохладно 1037.5 1038.0
18 17.11 С 4 30 км н/о -2.7 -23.2 19 -7 -7 холодно 1037.1 1032.9 +5.4
21 17.11 СЗ 2 30 км ?/? -2.9 -23.3 19 -6 -6 холодно 1036.6 1037.0
00 18.11 СЗ 2 30 км ясно -2.4 -21.8 21 -5 -5 прохладно 1036.5 1032.3
03 18.11 З 3 30 км ясно +1.3 -21.1 17 -2 +2 прохладно 1034.9 1035.0
06 18.11 ЮЗ 5 10 км ясно +3.6 -20.6 15 -0 +2 холодно 1030.1 1026.0 -3.9
09 18.11 ЮЗ 3 15 км 3/3
[]
+2.3 -19.0 19 -1 -1 холодно 1028.3 1028.0
12 18.11 ЮЗ 3 11 км 4/4
[]
+0.3 -16.5 27 -3 -3 холодно 1028.5 1024.3
15 18.11 ЮЗ 2 8000 м н/о -1.2 -15.1 34 -4 -4 прохладно 1028.6 1029.0
18 18.11 С 1 6000 м мгла н/о -3.7 -13.4 47 -5 -5 прохладно 1029.0 1024.8 +4.2
21 18.11 ЮВ 1 4400 м мгла н/о -5.5 -12.2 59 -7 -7 холодно 1029.1 1029.0
00 19.11 В 2 7000 м мгла 9/9
[]
-2.5 -12.5 46 -6 -6 прохладно 1030.3 1026.1
03 19.11 В 1 7000 м 9/9 <50 м
[]
+0.9 -12.5 36 0 +1 прохладно 1030.8 1031.0
06 19.11 ЮЗ 2 8000 м 9/9
[]
+4.2 -14.1 25 +3 +3 прохладно 1027.4 1023.3 -5.9
09 19.11 ЮВ 1 6000 м мгла 6/6
[]
+2.4 -13.4 30 +2 +2 по сезону 1027.1 1027.0
12 19.11 В 1 4400 м мгла 9/9
[]
-2.3 -10.6 53 -4 -4 холодно 1027.7 1023.5
15 19.11 В 1 3500 м мгла н/о -3.3 -9.5 62 -5 -5 холодно 1028.5 1029.0
18 19.11 штиль 0 2700 м мгла н/о -5.1 -9.7 70 -6 -6 прохладно 1028.5 1024.3 +5.0
21 19.11 штиль 0 2600 м мгла н/о -5.8 -9.7 74 -7 -7 холодно 1028.1 1028.0
00 20.11 штиль 0 2400 м мгла ясно -4.2 -8.5 72 -5 -5 прохладно 1029.4 1025.2
03 20.11 Ю 2 4900 м мгла 3/3
[]
+5.1 -9.5 34 +3 +7 по сезону 1029.9 1030.0
06 20.11 Ю 3 9000 м 3/3
[]
+9.5 -14.3 17 +8 +10 по сезону 1026.7 1022.6 -6.4
09 20.11 ЮЗ 2 4400 м мгла 3/3
[]
+7.1 -11.6 25 +6 +6 по сезону 1025.5 1026.0
12 20.11 ЮЗ 2 3200 м мгла 3/3
[]
+4.0 -10.4 34 +2 +2 по сезону 1025.9 1021.8
15 20.11 Ю 3 3600 м мгла н/о +2.4 -10.5 38 -1 -1 по сезону 1025.5 1026.0
18 20.11 штиль 0 3300 м мгла н/о -1.1 -9.2 54 -2 -2 по сезону 1024.4 1020.3 +10.0
21 20.11 штиль 0 2700 м мгла ?/? -3.3 -8.7 66 -4 -4 по сезону 1022.4 1022.0
00 21.11 штиль 0 2500 м мгла 8/8
[]
-2.1 -7.4 67 -3 -3 по сезону 1021.9 1017.8
03 21.11 В 2 2800 м мгла 9/9
[]
+4.4 -6.8 44 +2 +3 по сезону 1020.6 1021.0
06 21.11 З 3 2600 м мгла 9/9
[]
+7.8 -6.0 37 +6 +6 по сезону 1018.0 1013.9 -3.6
09 21.11 З 2 2600 м мгла 9/9
[]
+5.8 -6.1 42 +4 +4 по сезону 1018.7 1019.0
12 21.11 СЗ 7 11 км 4/4
[]
+9.3 -16.8 14 +6 +6 тепло 1022.0 1017.9
15 21.11 С 3 24 км н/о +5.7 -14.9 21 +4 +4 тепло 1024.6 1025.0
18 21.11 С 3 30 км н/о +3.7 -13.6 27 +1 +1 по сезону 1024.9 1020.9 +9.4
21 21.11 СВ 1 30 км н/о +0.7 -12.7 36 -0 -0 по сезону 1025.2 1025.0
00 22.11 З 2 17 км 3/3 1000 м
[]
+0.8 -10.4 43 -2 -2 по сезону 1026.9 1022.8
03 22.11 СЗ 4 30 км 3/3 1000 м
[]
+6.5 -12.6 24 +4 +6 по сезону 1026.4 1026.0
06 22.11 СЗ 4 24 км 3/3 1000 м
[]
+8.0 -17.1 15 +6 +8 по сезону 1023.7 1019.7 -2.3
09 22.11 СЗ 4 30 км 3/3 1500 м
[]
+5.7 -18.2 16 +3 +3 по сезону 1024.9 1025.0
12 22.11 СЗ 5 30 км 3/3 1500 м
[]
+4.2 -19.4 16 +1 +1 по сезону 1027.0 1022.9
15 22.11 СЗ 2 30 км н/о +2.7 -19.9 17 +1 +1 по сезону 1027.6 1028.0
18 22.11 ЮВ 1 30 км н/о +1.0 -20.7 18 +1 +1 по сезону 1026.9 1022.8 +8.4
21 22.11 ЮЗ 1 30 км н/о -1.9 -18.9 26 -3 -3 по сезону 1026.0 1026.0
00 23.11 Ю 2 23 км ясно -1.3 -17.1 29 -4 -4 по сезону 1025.3 1021.2
03 23.11 З 5 28 км ясно +4.5 -21.6 13 +1 +3 по сезону 1023.2 1023.0
06 23.11 З 2 30 км 9/9
[]
+5.9 -19.6 14 +5 +5 по сезону 1021.3 1017.2 -4.2
09 23.11 СЗ 4 26 км 3/3 1500 м
[]
+4.7 -13.7 25 +2 +2 по сезону 1023.0 1023.0
12 23.11 СЗ 3 30 км ясно +2.8 -16.8 22 0 0 по сезону 1026.9 1022.8
15 23.11 СЗ 3 30 км ?/? +1.7 -17.2 23 -1 -1 по сезону 1027.7 1028.0
18 23.11 С 2 30 км н/о +1.0 -18.9 21 -1 -1 по сезону 1028.1 1024.0 +6.5
21 23.11 З 1 30 км н/о -3.1 -16.4 35 -4 -4 по сезону 1027.8 1028.0
00 24.11 Ю 1 24 км ясно -0.9 -16.3 30 -2 -2 по сезону 1028.0 1023.9
03 24.11 ЮЗ 4 30 км ясно +4.1 -17.5 19 +1 +4 по сезону 1026.9 1027.0
06 24.11 ЮЗ 6 30 км 3/3
[]
+6.5 -18.3 15 +3 +4 по сезону 1022.7 1018.6 -3.7
09 24.11 Ю 3 17 км 4/4
[]
+4.7 -14.7 23 +2 +2 по сезону 1021.6 1022.0

 

Местоположение метеостанции Beijing (Китай): широта 39.93 долгота 116.28 высота над уровнем моря 55 м.

В архиве по умолчанию представлена погода в Beijing за последнюю неделю. Архивные данные за месяц целиком и за предыдущие месяцы, начиная с января 2011 года, Вы можете получить, выбрав интересующий диапазон дат из раскрывающегося списка и нажав кнопку "Ввод!".

Внимание! Время в таблицах - всемирное. Для получения местного времени необходимо прибавить поправку, которая в Beijing равна 8 ч.

Смотрите также архив погоды в соседних городах и на ближайших метеорологических станциях:

Погода в Huailai (Китай) (84 км)
Погода в Tianjin (Китай) (119 км)
Погода в Baoding (Китай) (135 км)
Погода в Fengning (Китай) (146 км)
Погода в Yu Xian (Китай) (147 км)
Погода в Zhangjiakou (Китай) (152 км)
Погода в Tangshan (Китай) (162 км)
Погода в Chengde (Китай) (183 км)
Погода в Potou (Китай) (207 км)
Погода в Leting (Китай) (231 км)

Пояснения к столбцам:

Ветер - указаны скорость ветра в м/с - средняя за 10 мин, порывы в срок и между сроками (в фигурных скобках) и направление, откуда дует ветер: С - северный, СВ - северо-восточный, В - восточный, ЮВ - юго-восточный, Ю - южный, ЮЗ - юго-западный, З - западный, СЗ - северо-западный.
Видимость - горизонтальная дальность видимости в метрах или километрах. При видимости от 1 до 10 км при отсутствии осадков обычно наблюдается дымка, при ухудшении видимости до 1 км и менее - туман. В сухую погоду видимость может ухудшаться дымом, пылью или мглою.
Явления - указаны атмосферные явления, наблюдавшиеся в срок или в последний час перед сроком; фигурными скобками обозначены явления, наблюдавшиеся между сроками (за 1-3 часа до срока); квадратными скобками обозначены град или гололедные отложения с указанием их диаметра в мм.
Облачность - указаны через наклонную черту общая и нижняя облачность в баллах и высота нижней границы облаков в метрах; квадратными скобками обозначены формы облаков: Ci - перистые, Cs - перисто-слоистые, Cc - перисто-кучевые, Ac - высококучевые, As - высокослоистые, Sc - слоисто-кучевые, Ns - слоисто-дождевые, Cu - кучевые, Cb - кучево-дождевые. Подробнее классификацию облаков см. в Атласе облаков (PDF).
T - Температура воздуха - температура, измеренная на высоте 2 м над землей.
Td - Температура точки росы - температура, при понижении до которой содержащийся в воздухе водяной пар достигнет насыщения.
f - Относительная влажность воздуха - влажноcть воздуха, измеренная на высоте 2 м над землей.
Te - Эффективная температура - температура, которую ощущает одетый по сезону человек в тени. Характеристика душности погоды. При расчете учитывается влияние влажности воздуха и скорости ветра на теплоощущения человека.
Tes - Эффективная температура на солнце - температура, которую ощущает человек, с поправкой на солнечный нагрев. Характеристика знойности погоды. Зависит от высоты солнца над горизонтом, облачности и скорости ветра. Ночью, в пасмурную погоду, а также при ветре 12 м/с и более поправка равна нулю.
P - Атмосферное давление - приведенное к уровню моря атмосферное давление.
Po - Атмосферное давление - измеренное на уровне метеостанции атмосферное давление.
Tmin - Минимальная температура - минимум температуры воздуха на высоте 2 м над землей.
Tmax - Максимальная температура - максимум температуры воздуха на высоте 2 м над землей.
R - Количество осадков - Количество выпавших осадков за период времени, мм. При наведении курсора мыши на число - период времени, за который выпало указанное количество осадков.
R24 - Количество осадков - Количество выпавших осадков за 24 часа, мм.
S - Снежный покров - Высота снежного покрова, см. При наведении курсора мыши на число - состояние снежного покрова и степень покрытия местности в баллах.